Sacramento, CA

2:52 AM PDT on June 20, 2018 (GMT -0700)
Sacramento Executive

Weather History for KSAC - September, 2017

Change the Weather History Date:

Wednesday, September 13, 2017

  Actual Average Record
Temperature  
Mean Temperature 71 °F -  
Max Temperature 79 °F 88 °F 105 °F (1971)
Min Temperature 63 °F 56 °F 48 °F (1970)
Degree Days  
Heating Degree Days 0    
Cooling Degree Days 6    
Growing Degree Days 20 (Base 50)    
Moisture  
Dew Point 61 °F    
Average Humidity 73    
Maximum Humidity 90    
Minimum Humidity 56    
Precipitation  
Precipitation 0.00 in 0.01 in 0.04 in (2009)
Month to date precipitation T 0.09  
Year to date precipitation 23.63 12.04  
Sea Level Pressure  
Sea Level Pressure 29.79 in    
Wind  
Wind Speed 9 mph (SSW)    
Max Wind Speed 21 mph    
Max Gust Speed 29 mph    
Visibility 10 miles    
Events      
T = Trace of Precipitation, MM = Missing Value Source: NWS Daily Summary

Daily Weather History Graph

Daily Weather History Graph

Search for Another Location

Airport or City:

Astronomy

Sep. 13, 2017 Rise Set
Actual Time 6:46 AM PDT 7:16 PM PDT
Civil Twilight 6:19 AM PDT 7:43 PM PDT
Nautical Twilight 5:48 AM PDT 8:14 PM PDT
Astronomical Twilight 5:15 AM PDT 8:46 PM PDT
Moon No Moon Rise 2:35 PM PDT (9/13)
Length of Visible Light 13h 23m
Length of Day
12h 30m
Last Quarter, 44% of the Moon is Illuminated
Sep 13
Last Quarter
Sep 19
New
Sep 27
First Quarter
Oct 5
Full
Oct 12
Last Quarter

Hourly Weather History & Observations

Time (PDT) Temp. Dew Point Humidity Pressure Visibility Wind Dir Wind Speed Gust Speed Precip Events Conditions
12:53 AM 66.0 °F 62.1 °F 87% 29.80 in 10.0 mi South 4.6 mph - N/A   Clear
1:53 AM 66.0 °F 62.1 °F 87% 29.80 in 10.0 mi South 5.8 mph - N/A   Clear
2:53 AM 66.0 °F 61.0 °F 84% 29.78 in 10.0 mi South 5.8 mph - N/A   Clear
3:53 AM 64.9 °F 61.0 °F 87% 29.79 in 10.0 mi South 6.9 mph - N/A   Clear
4:53 AM 64.9 °F 60.1 °F 84% 29.79 in 10.0 mi SSW 10.4 mph - N/A   Clear
5:53 AM 64.9 °F 60.1 °F 84% 29.80 in 10.0 mi SSW 8.1 mph - N/A   Clear
6:53 AM 64.9 °F 60.1 °F 84% 29.81 in 10.0 mi SSW 8.1 mph - N/A   Clear
7:53 AM 66.0 °F 60.1 °F 81% 29.82 in 10.0 mi South 9.2 mph - N/A   Clear
8:53 AM 69.1 °F 60.1 °F 73% 29.83 in 10.0 mi South 8.1 mph 17.3 mph N/A   Clear
9:53 AM 71.1 °F 61.0 °F 70% 29.84 in 10.0 mi SSW 13.8 mph 21.9 mph N/A   Clear
10:53 AM 73.0 °F 61.0 °F 66% 29.85 in 10.0 mi SSW 13.8 mph 23.0 mph N/A   Clear
11:53 AM 73.9 °F 62.1 °F 66% 29.83 in 10.0 mi South 12.7 mph - N/A   Clear
12:53 PM 75.9 °F 62.1 °F 62% 29.82 in 10.0 mi SW 16.1 mph - N/A   Clear
1:53 PM 75.9 °F 62.1 °F 62% 29.80 in 10.0 mi SSW 15.0 mph 20.7 mph N/A   Clear
2:53 PM 77.0 °F 62.1 °F 60% 29.77 in 10.0 mi SSW 16.1 mph 23.0 mph N/A   Clear
3:53 PM 77.0 °F 61.0 °F 58% 29.77 in 10.0 mi SSW 13.8 mph 21.9 mph N/A   Clear
4:53 PM 77.0 °F 61.0 °F 58% 29.75 in 10.0 mi SSW 11.5 mph 20.7 mph N/A   Clear
5:53 PM 75.0 °F 61.0 °F 62% 29.75 in 10.0 mi SSW 12.7 mph 19.6 mph N/A   Clear
6:53 PM 70.0 °F 61.0 °F 73% 29.75 in 10.0 mi SSW 10.4 mph 24.2 mph N/A   Clear
7:53 PM 66.9 °F 60.1 °F 79% 29.76 in 10.0 mi SSW 15.0 mph 19.6 mph N/A   Clear
8:53 PM 66.0 °F 59.0 °F 78% 29.77 in 10.0 mi SSW 13.8 mph 24.2 mph N/A   Clear
9:53 PM 64.9 °F 59.0 °F 81% 29.77 in 10.0 mi SSW 11.5 mph 19.6 mph N/A   Clear
10:53 PM 64.0 °F 59.0 °F 84% 29.78 in 10.0 mi SSW 11.5 mph 18.4 mph N/A   Clear
11:53 PM 63.0 °F 59.0 °F 87% 29.78 in 10.0 mi SSW 11.5 mph 21.9 mph N/A   Clear